Wind_Speed
5 5 6 6 7 7 7 7 8 8 9 9 8 9 9 9 9 10 10 11 11 12 12 13 14 14 13 14 14 15 15 15 15 15 15 16 16 16 16 16 17 18 18
6 6 6 6 7 7 7 8 8 8 8 8 8 9 9 9 9 10 10 11 11 11 12 12 13 14 14 14 15 15 15 15 16 16 16 16 16 16 16 16 17 18 18
6 7 7 7 7 8 8 8 8 8 8 8 9 9 9 10 10 10 10 10 11 11 12 12 13 14 14 14 14 15 16 16 16 16 16 16 16 17 17 18 18 18 19
8 8 8 8 8 9 9 9 8 8 9 9 9 10 10 10 10 11 11 11 11 11 11 12 13 14 14 14 14 15 16 16 17 17 16 17 17 17 18 18 18 18 19
9 9 9 9 9 10 10 10 9 9 9 9 9 10 11 11 11 11 11 11 12 12 12 12 13 13 14 14 14 14 15 16 16 17 17 17 17 17 18 18 18 18 19
10 10 11 11 11 11 11 11 11 10 10 10 11 11 11 12 12 12 12 12 12 12 13 13 13 13 14 14 14 15 15 15 15 15 16 17 17 18 17 17 18 18 19
12 12 12 12 12 12 12 11 11 11 11 11 12 12 13 13 13 13 13 13 13 13 13 14 14 14 15 15 15 15 15 15 15 15 15 16 16 17 17 17 18 18 18
13 12 12 12 12 12 12 12 11 11 11 12 12 13 13 14 14 14 14 14 14 14 14 14 15 15 15 15 15 15 16 15 15 16 16 17 16 17 17 17 18 19 19
13 13 13 14 14 13 13 12 12 12 12 13 13 13 14 14 14 14 14 15 15 14 15 15 15 15 15 15 15 15 15 16 16 17 17 18 18 18 18 18 19 19 19
14 14 14 15 15 14 14 13 13 13 14 14 14 14 14 14 14 15 15 15 14 15 15 15 15 15 15 15 15 14 15 16 17 17 17 18 18 18 19 19 20 20 21
15 15 15 16 16 16 15 15 15 15 15 15 15 15 14 14 15 15 15 15 15 15 15 15 15 15 15 15 15 15 16 16 16 17 17 18 18 19 19 20 21 21 21
16 16 16 17 16 16 16 16 16 16 16 16 15 15 15 15 15 15 15 15 15 15 15 15 15 15 16 16 16 16 17 17 16 17 18 18 19 19 20 21 21 21 21
17 17 17 17 17 17 17 17 17 17 17 17 17 17 16 15 15 15 15 15 15 15 16 16 16 16 17 17 17 18 17 17 18 18 18 19 19 20 21 21 21 22 22
18 18 18 18 17 17 17 18 18 18 18 17 18 18 18 17 16 16 16 15 16 16 17 17 17 17 17 17 18 18 18 18 18 19 19 19 20 21 21 21 21 22 22
18 18 17 17 17 17 18 18 18 18 19 18 18 18 18 17 17 18 17 17 17 17 18 19 19 18 18 19 19 19 19 19 19 19 20 20 20 21 21 21 21 22 23
17 17 17 17 17 18 18 18 19 19 19 19 19 19 19 19 19 19 19 19 19 19 18 19 20 20 20 21 20 20 20 20 20 20 20 20 20 21 21 21 22 22 23
18 18 18 18 18 18 18 19 19 19 19 19 20 20 20 20 20 20 20 20 20 20 20 20 21 21 20 21 21 21 21 21 20 20 21 21 21 21 20 20 20 20 20
18 18 18 19 19 19 19 20 19 19 20 20 20 21 21 21 21 21 21 22 21 21 21 21 22 22 22 22 22 22 21 22 22 21 21 21 21 21 21 21 20 20 20
18 19 19 19 20 20 20 20 20 20 20 20 21 21 22 22 21 22 22 23 23 22 22 22 22 23 23 23 23 23 23 23 23 23 23 22 22 22 21 21 20 20 20
19 19 20 20 20 20 20 20 20 21 21 21 22 22 23 23 22 23 23 23 24 24 24 25 24 23 23 23 23 24 24 24 23 23 23 23 23 23 22 22 21 21 20
19 19 19 20 20 21 21 21 21 21 22 22 23 23 24 23 23 24 24 24 24 25 25 25 25 24 23 24 24 24 24 24 24 24 24 24 23 23 23 23 22 22 21
21 21 21 21 21 21 22 22 22 23 23 23 24 24 24 24 24 25 25 25 25 25 25 25 25 24 24 25 24 24 24 24 24 24 24 24 24 24 23 23 23 23 23
22 22 22 22 22 22 23 24 24 24 24 24 24 25 25 25 25 25 25 25 25 25 25 25 25 25 25 24 25 25 25 24 24 25 24 24 25 25 24 24 24 24 24
23 23 23 23 24 24 24 24 25 25 25 25 26 25 25 26 26 26 26 26 26 26 27 27 26 26 26 26 26 26 26 25 24 24 25 25 25 25 25 25 25 25 25
24 24 25 25 25 26 26 27 27 27 27 26 26 27 26 26 27 27 27 27 27 28 29 29 28 28 28 27 27 27 27 27 26 26 26 26 26 26 26 26 26 26 26
24 25 26 26 27 27 27 28 28 28 28 28 28 27 28 28 28 28 28 28 28 29 29 30 29 29 28 27 27 28 29 28 28 28 28 29 28 28 27 28 27 26 26
Wind_Direction
298 294 293 292 288 285 283 278 276 276 274 270 267 263 264 265 261 258 258 257 255 257 257 255 254 253 252 252 251 251 253 255 255 256 257 258 258 260 261 261 261 261 260
298 297 296 297 293 290 287 282 277 272 268 264 262 262 265 265 265 266 262 261 260 259 258 257 255 256 255 255 255 253 253 254 256 257 258 258 260 260 261 262 262 262 260
299 297 294 293 289 290 290 285 275 269 267 265 263 263 263 262 264 265 265 264 265 264 262 260 258 257 257 258 257 255 254 256 257 258 258 259 260 260 261 261 262 262 261
298 297 294 292 289 289 289 283 275 271 272 270 266 265 260 262 264 262 263 263 266 264 265 263 261 261 259 260 260 259 258 258 259 259 260 258 258 260 261 261 263 264 263
299 298 297 295 291 289 288 283 280 279 276 274 271 268 264 265 266 263 263 264 264 263 264 264 263 265 265 265 262 262 263 262 261 261 262 260 260 261 261 262 263 265 265
298 297 296 295 293 290 287 282 278 277 275 274 271 269 268 268 268 268 266 264 264 265 266 265 265 266 266 267 266 265 264 262 262 263 263 261 261 261 262 263 264 266 266
298 296 296 292 290 289 286 282 278 277 275 273 271 271 270 270 271 270 267 265 265 266 267 267 267 267 267 267 268 266 265 263 262 263 263 262 262 261 263 264 265 267 267
301 297 296 293 290 288 285 282 279 278 278 277 275 273 271 268 269 269 269 266 267 267 268 267 267 268 268 269 268 268 266 263 263 263 263 264 265 265 265 267 268 268 267
301 298 294 292 290 286 283 282 278 276 278 279 278 274 272 270 270 269 268 267 267 268 268 266 266 266 267 269 270 269 267 264 263 263 264 265 266 267 267 268 269 269 267
298 296 293 291 290 286 282 279 279 277 278 279 278 273 271 270 269 269 268 268 268 268 268 269 268 268 269 270 269 271 269 267 265 265 267 268 268 268 268 269 270 270 268
298 296 294 291 288 284 282 278 276 275 276 276 275 272 269 268 269 269 268 267 266 267 268 269 269 270 270 273 273 273 272 269 268 267 268 269 270 270 270 270 271 270 269
296 294 292 290 286 284 282 279 275 275 276 275 273 270 270 269 268 268 268 268 267 268 268 270 270 270 270 274 275 275 273 270 270 270 270 270 271 272 272 272 272 271 270
294 291 290 288 285 283 281 278 277 275 276 275 273 270 268 269 268 268 269 269 270 269 269 271 272 272 272 273 276 276 274 273 272 271 270 270 271 273 273 272 272 272 270
292 291 289 287 283 282 281 279 279 277 276 274 273 273 271 270 270 270 269 269 269 270 271 271 273 273 273 273 274 276 275 274 273 272 271 271 272 274 274 273 274 273 271
293 292 291 288 286 284 283 281 279 278 277 275 274 272 271 271 271 271 270 269 270 270 271 271 273 274 273 273 273 274 275 274 272 272 271 271 273 274 273 274 274 274 271
297 295 293 291 288 286 283 281 280 279 277 275 274 273 271 271 271 273 274 273 272 271 272 272 273 275 274 273 274 274 274 274 272 271 270 271 272 272 273 272 273 273 269
295 293 292 290 288 287 284 282 281 278 276 274 272 272 272 272 272 272 272 273 272 271 272 273 273 274 274 275 275 275 275 274 274 273 273 275 276 276 274 274 275 275 272
294 293 291 288 287 285 283 282 280 279 277 274 272 272 272 273 272 272 273 273 272 271 272 274 273 273 274 275 275 275 276 274 273 274 273 274 275 276 276 274 277 275 272
293 293 292 288 287 285 284 282 279 279 278 276 273 272 272 273 271 271 272 273 272 271 272 273 273 272 272 274 275 274 276 274 273 274 273 273 271 272 273 274 276 274 271
293 294 292 289 287 286 285 282 279 278 278 276 274 273 273 272 271 271 272 273 272 272 272 273 273 273 272 273 274 273 274 274 273 273 273 271 270 270 271 272 272 272 271
291 292 292 290 287 286 284 282 280 279 277 276 276 274 273 272 271 271 272 272 272 273 273 274 273 273 273 272 271 272 272 273 273 272 271 270 270 270 269 269 270 270 271
291 291 290 288 286 285 284 282 281 279 278 277 275 274 273 272 272 272 272 272 272 273 274 273 272 273 275 274 272 272 271 272 273 271 270 269 269 268 268 269 269 268 268
293 291 291 289 286 284 284 283 282 280 278 277 278 276 273 272 272 271 271 271 271 272 272 273 274 273 273 274 273 271 270 271 272 272 270 269 268 268 268 268 268 267 266
294 292 291 291 289 286 284 283 282 281 280 279 278 277 274 272 271 270 271 270 271 271 273 274 275 275 272 272 272 270 270 270 271 271 270 270 270 269 268 268 267 267 266
295 295 294 292 290 287 285 283 283 282 280 280 279 277 274 272 271 270 271 270 271 272 273 274 275 276 275 273 272 270 269 269 271 271 269 269 270 270 269 268 268 267 267
294 295 296 294 292 289 286 284 284 282 280 279 278 277 275 273 272 272 272 272 272 273 273 273 273 274 274 273 271 270 270 269 270 270 269 269 269 269 269 269 268 268 268
Height
5849 5848 5847 5847 5847 5847 5846 5846 5846 5845 5845 5845 5845 5845 5845 5845 5845 5845 5845 5845 5845 5845 5845 5846 5846 5846 5847 5847 5848 5848 5849 5850 5850 5850 5850 5850 5851 5851 5851 5851 5851 5852 5852
5847 5846 5846 5845 5845 5845 5844 5844 5844 5843 5843 5843 5843 5843 5843 5843 5843 5843 5843 5843 5843 5843 5843 5843 5843 5843 5844 5844 5844 5845 5845 5846 5846 5846 5847 5847 5847 5847 5847 5847 5847 5848 5848
5845 5844 5844 5843 5843 5842 5842 5842 5841 5841 5841 5841 5841 5841 5840 5841 5841 5840 5840 5840 5840 5840 5840 5840 5840 5840 5840 5841 5841 5841 5842 5842 5842 5842 5843 5843 5843 5843 5843 5843 5843 5843 5844
5843 5842 5842 5841 5841 5840 5840 5839 5839 5839 5839 5838 5838 5838 5838 5838 5838 5838 5838 5838 5837 5837 5837 5837 5837 5837 5837 5837 5837 5838 5838 5838 5838 5838 5838 5839 5839 5839 5839 5839 5839 5839 5839
5840 5840 5839 5839 5838 5837 5837 5837 5836 5836 5836 5836 5835 5835 5835 5835 5835 5835 5835 5835 5834 5834 5834 5834 5834 5834 5834 5834 5834 5834 5834 5834 5834 5834 5834 5834 5834 5834 5834 5834 5834 5834 5834
5838 5837 5837 5836 5835 5835 5834 5834 5833 5833 5833 5833 5833 5832 5832 5832 5832 5832 5832 5831 5831 5831 5830 5830 5830 5830 5830 5830 5830 5830 5830 5830 5830 5830 5830 5830 5830 5830 5830 5830 5830 5830 5830
5835 5834 5833 5833 5832 5831 5831 5831 5830 5830 5830 5830 5829 5829 5829 5829 5828 5828 5828 5828 5828 5827 5827 5827 5826 5826 5826 5826 5826 5826 5826 5826 5826 5826 5826 5825 5825 5825 5826 5826 5826 5825 5825
5832 5831 5830 5829 5829 5828 5827 5827 5827 5826 5826 5826 5826 5825 5825 5826 5825 5825 5824 5824 5824 5824 5823 5823 5823 5822 5822 5822 5822 5822 5822 5822 5822 5821 5821 5821 5821 5821 5821 5821 5821 5821 5820
5828 5827 5826 5825 5825 5824 5824 5823 5823 5823 5822 5822 5822 5822 5821 5821 5821 5821 5820 5820 5820 5820 5819 5819 5819 5818 5818 5818 5818 5818 5817 5817 5817 5817 5817 5816 5816 5816 5816 5816 5816 5815 5815
5825 5823 5822 5821 5820 5820 5820 5819 5819 5819 5819 5818 5818 5818 5818 5817 5817 5817 5816 5816 5816 5816 5815 5815 5815 5814 5814 5814 5814 5813 5813 5812 5812 5812 5812 5811 5811 5811 5810 5810 5810 5810 5810
5821 5820 5818 5817 5816 5815 5815 5815 5814 5814 5814 5814 5813 5813 5813 5813 5812 5812 5812 5812 5812 5811 5811 5811 5811 5810 5810 5809 5809 5809 5808 5808 5807 5807 5807 5806 5806 5806 5805 5805 5805 5804 5804
5817 5815 5814 5813 5812 5811 5810 5810 5809 5809 5809 5809 5809 5809 5808 5808 5808 5808 5807 5807 5807 5807 5807 5807 5807 5806 5806 5805 5805 5804 5803 5803 5802 5802 5802 5801 5801 5800 5800 5799 5799 5798 5798
5813 5811 5809 5808 5807 5806 5806 5805 5804 5804 5804 5803 5803 5803 5803 5803 5803 5803 5803 5803 5803 5803 5802 5802 5802 5801 5801 5800 5800 5799 5798 5798 5797 5797 5797 5796 5795 5795 5794 5793 5792 5792 5792
5808 5806 5805 5803 5802 5801 5801 5800 5799 5799 5798 5798 5798 5798 5798 5798 5798 5798 5799 5799 5799 5798 5797 5797 5797 5796 5796 5795 5795 5794 5793 5793 5792 5792 5791 5791 5790 5789 5788 5787 5787 5786 5785
5803 5801 5800 5798 5797 5796 5795 5794 5793 5793 5793 5792 5792 5792 5793 5793 5793 5793 5793 5793 5794 5793 5793 5792 5792 5791 5790 5790 5789 5789 5788 5787 5787 5786 5785 5785 5784 5783 5782 5781 5780 5779 5778
5798 5796 5795 5793 5792 5791 5790 5789 5788 5787 5787 5787 5787 5787 5787 5787 5787 5787 5787 5788 5788 5788 5787 5787 5786 5785 5785 5784 5783 5783 5782 5781 5781 5780 5780 5779 5778 5777 5776 5774 5773 5771 5770
5793 5792 5790 5788 5787 5785 5784 5783 5782 5782 5781 5781 5781 5781 5781 5781 5781 5781 5781 5781 5781 5781 5781 5781 5780 5779 5778 5778 5777 5777 5776 5775 5775 5774 5774 5773 5772 5771 5770 5768 5766 5764 5762
5788 5787 5785 5783 5782 5780 5779 5777 5776 5776 5775 5775 5775 5775 5775 5775 5775 5775 5775 5775 5775 5775 5775 5774 5773 5773 5772 5771 5771 5770 5770 5769 5769 5768 5767 5767 5766 5765 5764 5763 5761 5759 5758
5783 5781 5780 5778 5776 5775 5773 5771 5770 5770 5769 5769 5769 5769 5769 5769 5769 5769 5769 5768 5768 5768 5768 5768 5767 5766 5765 5765 5764 5763 5763 5762 5762 5761 5761 5761 5760 5759 5758 5757 5756 5755 5754
5778 5776 5774 5772 5771 5769 5767 5766 5765 5764 5763 5763 5763 5763 5763 5763 5762 5762 5762 5762 5761 5761 5761 5760 5760 5759 5758 5758 5757 5756 5756 5755 5755 5754 5754 5754 5753 5753 5752 5752 5751 5750 5749
5772 5770 5768 5767 5765 5763 5762 5760 5759 5758 5757 5757 5756 5756 5756 5755 5755 5755 5755 5755 5754 5754 5753 5753 5752 5752 5751 5751 5750 5749 5749 5748 5747 5747 5747 5746 5746 5746 5746 5745 5745 5744 5744
5767 5764 5763 5761 5759 5757 5756 5754 5753 5752 5751 5750 5750 5749 5749 5748 5748 5748 5747 5747 5747 5747 5746 5746 5745 5745 5744 5743 5743 5742 5742 5741 5741 5740 5740 5740 5739 5739 5739 5739 5738 5738 5738
5761 5758 5756 5754 5752 5751 5749 5748 5746 5745 5744 5743 5742 5742 5741 5741 5740 5740 5740 5740 5739 5739 5739 5739 5738 5737 5737 5736 5735 5735 5734 5734 5733 5733 5732 5732 5732 5732 5732 5732 5731 5732 5731
5754 5752 5750 5748 5746 5744 5742 5741 5739 5738 5737 5736 5735 5734 5733 5733 5733 5732 5732 5732 5732 5731 5731 5730 5730 5730 5729 5728 5728 5727 5727 5726 5726 5725 5725 5725 5725 5725 5725 5725 5724 5724 5724
5748 5745 5743 5741 5739 5737 5735 5733 5732 5730 5729 5728 5727 5726 5726 5725 5725 5724 5724 5724 5724 5723 5722 5722 5721 5721 5720 5720 5719 5719 5718 5718 5718 5718 5717 5717 5717 5718 5718 5717 5717 5716 5716
5741 5739 5736 5734 5731 5729 5727 5725 5724 5722 5722 5721 5719 5718 5718 5717 5716 5716 5715 5715 5715 5714 5714 5713 5713 5712 5711 5711 5710 5710 5710 5710 5709 5709 5709 5709 5709 5709 5710 5709 5709 5708 5708